STARLINK-5192, 54074

Orbit data source: Space-Track

STARLINK-5192, 54074 is a payload satellite owned by SpaceX/Seattle (US) in LEO that was launched on Thu, 20 Oct 2022 UTC via an FALCON 9 launch vehicle from the Air Force Eastern Test Range (AFETR). Payload-class satellites include a variety of spacecraft equipped with specific instruments for various scientific and technological missions. These include communications satellites like Starlink; space stations such as the ISS; scientific satellites like the Hubble; Earth observation satellites from companies like Planet Labs, Umbra, and HawkEye 360; GPS; miniature CubeSats for education and research; and military/defense satellites.

Loading next visibility...
Identifier
54074, 2022-136Z
Orbit
LEO
Last TLE update
10 hours ago
Origin
Manufacturer
SpaceX/Seattle
Mission
Operational Commercial Communications
Bus & Motor
STARLINK, Unknown motor
Mass
305 kg wet, ~290 kg dry
Launch date (UTC)
2022-10-20 (3 years ago)
Launch vehicle
FALCON 9
Launch site
Air Force Eastern Test Range (AFETR)
Object type
Payload
Rocket body
Debris
Shape & HBR
Box + 1 Pan, 8.86 m
Radar Cross Section
13.562 m², Large (>1 m²)

Expand to show TLE details & history

TLE from 10 hours ago
0 STARLINK-5192
1 54074U 22136Z   25182.86671015 -.00000541  00000-0 -15893-4 0  9998
2 54074  53.2186  29.7238 0001495  87.8176 272.2987 15.08836144148981
Epoch: 2025-07-01T20:48Z
TLE epoch observation values (Epoch: 2025-07-01T20:48:03.756Z)
Latitude
-0.00008°
Longitude
157.55208°
Altitude
540.611 km
Speed
7.593 km/s
True Right ascension
01h 58m 53s
True Declination
0° 00' 00"
Sunlit
Object was in daylight at epoch
Visualization orbit readout
Latitude
-4.52803°
Longitude
152.39669°
Altitude
541.434 km
Speed
7.592 km/s
Apparent Right ascension
03h 24m 30s
Apparent Declination
-24° 49' 12"
Sunlit
Object is in daylight
Visualization observer readout
Local Sidereal Time
18:00:36
Azimuth
77.136° E
Elevation
-54.114°
Doppler factor
1
Orbital elements
Apogee altitude
541.034 km
Perigee altitude
538.966 km
Semi-major axis
6,918.137 km
Eccentricity
0.00015
Inclination
53.2186°
RAAN
29.7238°
Arg. of periapsis
87.8176°
True anomaly
Unknown
Mean anomaly
272.2987°
Eccentric anomaly
Unknown
Mean motion
3.77189 °/min
Orbital period
95.44 mins
BSTAR
-0.000015893
Loading maneuver chart data...
Loading SW <> Apogee altitude chart data...
Loading historical data...
Loading historical data...
Loading historical data...
Loading historical data...
Loading historical data...
Loading historical data...
Loading historical data...

STARLINK-5192 Visibility forecast

Observer location: undefined°, undefined°

Span
Click to sort rows by Start time (UTC) header in descending order
Start Az.
Max El. time (UTC)
Max El. Az.
Max El.
End time (UTC)
End Az.
7 mins2025-07-02 16:01:53.234Z208.819° SW2025-07-02 16:05:53.234Z121.34° SE36.693°2025-07-02 16:08:53.234Z62.513° ENE
5 mins2025-07-02 17:42:53.234Z283.737° WNW2025-07-02 17:44:53.234Z325.206° NNW25.331°2025-07-02 17:47:53.234Z26.339° NE
6 mins2025-07-02 22:43:53.234Z326.856° NNW2025-07-02 22:46:53.234Z58.182° ENE35.629°2025-07-02 22:49:53.234Z108.499° ESE
4 mins2025-07-03 00:23:53.234Z265.3° W2025-07-03 00:25:53.234Z222.777° SW21.328°2025-07-03 00:27:53.234Z186.817° SSW
|